Time,TemperatureF,DewpointF,PressureIn,WindDirection,WindDirectionDegrees,WindSpeedMPH,WindSpeedGustMPH,Humidity,HourlyPrecipIn,Conditions,Clouds,dailyrainin,SoftwareType,DateUTC
2013-01-18 00:03:00,34.1,30.1,29.82,East,88,1.1,1.1,85,0.00,RA,,0.00,WeatherDisplay:10.37,2013-01-18 00:03:00,
2013-01-18 00:08:00,34.1,30.1,29.81,SW,216,2.3,2.3,85,0.00,RA,,0.00,WeatherDisplay:10.37,2013-01-18 00:08:00,
2013-01-18 00:13:00,34.1,29.8,29.81,WSW,248,4.6,4.6,84,0.00,,,0.00,WeatherDisplay:10.37,2013-01-18 00:13:00,
2013-01-18 00:19:00,34.1,29.8,29.81,ESE,121,2.3,2.3,84,0.00,,,0.00,WeatherDisplay:10.37,2013-01-18 00:19:00,
2013-01-18 00:24:00,34.0,29.7,29.81,NNW,336,3.5,3.5,84,0.00,,,0.00,WeatherDisplay:10.37,2013-01-18 00:24:00,
2013-01-18 00:29:00,34.1,29.8,29.81,NW,317,3.5,3.5,84,0.00,,,0.00,WeatherDisplay:10.37,2013-01-18 00:29:00,
2013-01-18 00:34:00,34.1,29.8,29.81,North,350,3.5,3.5,84,0.00,,,0.00,WeatherDisplay:10.37,2013-01-18 00:34:00,
2013-01-18 00:39:00,34.1,29.8,29.81,NNE,16,1.1,1.1,84,0.00,,,0.00,WeatherDisplay:10.37,2013-01-18 00:39:00,
2013-01-18 00:44:00,34.0,29.7,29.81,North,5,3.5,3.5,84,0.00,,,0.00,WeatherDisplay:10.37,2013-01-18 00:44:00,
2013-01-18 00:50:00,34.0,29.4,29.80,NNW,337,3.0,3.0,83,0.00,,,0.00,WeatherDisplay:10.37,2013-01-18 00:50:00,
2013-01-18 00:55:00,34.0,29.4,29.81,East,94,4.0,4.0,83,0.00,,,0.00,WeatherDisplay:10.37,2013-01-18 00:55:00,
2013-01-18 01:00:00,34.1,29.2,29.81,SE,127,5.0,5.0,82,0.00,,,0.00,WeatherDisplay:10.37,2013-01-18 01:00:00,
2013-01-18 01:05:00,34.1,29.2,29.80,NE,34,4.0,4.0,82,0.00,,,0.00,WeatherDisplay:10.37,2013-01-18 01:05:00,
2013-01-18 01:11:00,34.1,28.9,29.80,West,263,6.9,6.9,81,0.00,,,0.00,WeatherDisplay:10.37,2013-01-18 01:11:00,
2013-01-18 01:16:00,34.1,28.9,29.80,WSW,250,3.5,3.5,81,0.00,,,0.00,WeatherDisplay:10.37,2013-01-18 01:16:00,
2013-01-18 01:21:00,34.2,28.7,29.80,WNW,284,3.0,3.0,80,0.00,,,0.00,WeatherDisplay:10.37,2013-01-18 01:21:00,
2013-01-18 01:26:00,34.2,28.7,29.80,WSW,250,4.6,4.6,80,0.00,,,0.00,WeatherDisplay:10.37,2013-01-18 01:26:00,
2013-01-18 01:32:00,34.1,28.6,29.80,WSW,238,3.5,3.5,80,0.00,,,0.00,WeatherDisplay:10.37,2013-01-18 01:32:00,
2013-01-18 01:37:00,34.1,28.6,29.80,South,188,5.8,5.8,80,0.00,,,0.00,WeatherDisplay:10.37,2013-01-18 01:37:00,
2013-01-18 01:42:00,34.1,28.3,29.80,SE,130,3.5,3.5,79,0.00,,,0.00,WeatherDisplay:10.37,2013-01-18 01:42:00,
2013-01-18 01:47:00,34.2,28.4,29.79,SE,137,6.0,6.0,79,0.00,,,0.00,WeatherDisplay:10.37,2013-01-18 01:47:00,
2013-01-18 01:52:00,34.3,28.5,29.79,WNW,288,3.5,3.5,79,0.00,,,0.00,WeatherDisplay:10.37,2013-01-18 01:52:00,
2013-01-18 01:57:00,34.4,28.6,29.79,WSW,245,3.5,3.5,79,0.00,,,0.00,WeatherDisplay:10.37,2013-01-18 01:57:00,
2013-01-18 02:03:00,34.4,28.6,29.79,SSW,196,2.3,2.3,79,0.00,,,0.00,WeatherDisplay:10.37,2013-01-18 02:03:00,
2013-01-18 02:08:00,34.5,28.7,29.79,SSW,212,3.5,3.5,79,0.00,,,0.00,WeatherDisplay:10.37,2013-01-18 02:08:00,
2013-01-18 02:13:00,34.6,28.4,29.79,SSW,192,2.3,2.3,78,0.00,,,0.00,WeatherDisplay:10.37,2013-01-18 02:13:00,
2013-01-18 02:18:00,34.6,28.4,29.79,WSW,257,3.5,3.5,78,0.00,,,0.00,WeatherDisplay:10.37,2013-01-18 02:18:00,
2013-01-18 02:23:00,34.7,28.2,29.79,SSE,163,4.6,4.6,77,0.00,,,0.00,WeatherDisplay:10.37,2013-01-18 02:23:00,
2013-01-18 02:29:00,34.8,28.3,29.79,NE,35,6.9,6.9,77,0.00,,,0.00,WeatherDisplay:10.37,2013-01-18 02:29:00,
2013-01-18 02:34:00,34.9,28.4,29.79,NNE,19,3.5,3.5,77,0.00,,,0.00,WeatherDisplay:10.37,2013-01-18 02:34:00,
2013-01-18 02:39:00,35.0,28.5,29.79,NE,46,5.8,5.8,77,0.00,,,0.00,WeatherDisplay:10.37,2013-01-18 02:39:00,
2013-01-18 02:44:00,35.0,28.5,29.79,SSW,206,2.3,2.3,77,0.00,,,0.00,WeatherDisplay:10.37,2013-01-18 02:44:00,
2013-01-18 02:49:00,35.0,28.5,29.79,WSW,243,8.1,8.1,77,0.00,,,0.00,WeatherDisplay:10.37,2013-01-18 02:49:00,
2013-01-18 02:54:00,35.0,28.5,29.78,SSW,195,2.0,2.0,77,0.00,,,0.00,WeatherDisplay:10.37,2013-01-18 02:54:00,
2013-01-18 02:59:00,34.9,28.4,29.78,SSE,168,4.0,4.0,77,0.00,,,0.00,WeatherDisplay:10.37,2013-01-18 02:59:00,
2013-01-18 03:04:00,34.8,28.3,29.78,South,172,2.0,2.0,77,0.00,,,0.00,WeatherDisplay:10.37,2013-01-18 03:04:00,
2013-01-18 03:10:00,34.7,28.2,29.78,WSW,243,3.5,3.5,77,0.00,,,0.00,WeatherDisplay:10.37,2013-01-18 03:10:00,
2013-01-18 03:15:00,34.6,28.1,29.78,ESE,112,1.1,1.1,77,0.00,,,0.00,WeatherDisplay:10.37,2013-01-18 03:15:00,
2013-01-18 03:20:00,34.6,28.4,29.77,ESE,112,1.1,0.0,78,0.00,,,0.00,WeatherDisplay:10.37,2013-01-18 03:20:00,
2013-01-18 03:25:00,34.4,28.6,29.77,SE,137,2.3,2.3,79,0.00,,,0.00,WeatherDisplay:10.37,2013-01-18 03:25:00,
2013-01-18 03:30:00,34.3,28.5,29.77,SSE,161,1.1,0.0,79,0.00,,,0.00,WeatherDisplay:10.37,2013-01-18 03:30:00,
2013-01-18 03:35:00,34.3,28.8,29.77,SSW,206,3.5,3.5,80,0.00,,,0.00,WeatherDisplay:10.37,2013-01-18 03:35:00,
2013-01-18 03:40:00,34.2,28.7,29.77,South,184,3.5,3.5,80,0.00,,,0.00,WeatherDisplay:10.37,2013-01-18 03:40:00,
2013-01-18 03:46:00,34.1,28.6,29.77,SE,144,4.0,4.0,80,0.00,,,0.00,WeatherDisplay:10.37,2013-01-18 03:46:00,
2013-01-18 03:51:00,34.0,28.5,29.77,SE,128,3.5,3.5,80,0.00,,,0.00,WeatherDisplay:10.37,2013-01-18 03:51:00,
2013-01-18 03:56:00,34.0,28.5,29.77,NW,325,3.5,3.5,80,0.00,,,0.00,WeatherDisplay:10.37,2013-01-18 03:56:00,
2013-01-18 04:01:00,33.9,28.4,29.76,SW,221,2.3,2.3,80,0.00,,,0.00,WeatherDisplay:10.37,2013-01-18 04:01:00,
2013-01-18 04:06:00,33.8,28.3,29.76,SSW,213,6.0,6.0,80,0.00,,,0.00,WeatherDisplay:10.37,2013-01-18 04:06:00,
2013-01-18 04:12:00,33.7,28.2,29.76,SSE,163,2.3,2.3,80,0.00,,,0.00,WeatherDisplay:10.37,2013-01-18 04:12:00,
2013-01-18 04:17:00,33.5,28.0,29.76,SSW,211,2.3,2.3,80,0.00,,,0.00,WeatherDisplay:10.37,2013-01-18 04:17:00,
2013-01-18 04:22:00,33.5,28.0,29.76,SW,236,6.9,6.9,80,0.00,,,0.00,WeatherDisplay:10.37,2013-01-18 04:22:00,
2013-01-18 04:27:00,33.4,27.9,29.76,SE,144,6.9,6.9,80,0.00,,,0.00,WeatherDisplay:10.37,2013-01-18 04:27:00,
2013-01-18 04:32:00,33.4,27.9,29.76,WSW,254,3.5,3.5,80,0.00,,,0.00,WeatherDisplay:10.37,2013-01-18 04:32:00,
2013-01-18 04:37:00,33.3,27.8,29.76,ESE,123,1.1,0.0,80,0.00,,,0.00,WeatherDisplay:10.37,2013-01-18 04:37:00,
2013-01-18 04:43:00,33.3,27.8,29.76,SE,143,3.5,3.5,80,0.00,,,0.00,WeatherDisplay:10.37,2013-01-18 04:43:00,
2013-01-18 04:48:00,33.3,27.8,29.76,SW,219,4.6,4.6,80,0.00,,,0.00,WeatherDisplay:10.37,2013-01-18 04:48:00,
2013-01-18 04:53:00,33.3,27.8,29.75,WSW,246,3.5,3.5,80,0.00,,,0.00,WeatherDisplay:10.37,2013-01-18 04:53:00,
2013-01-18 04:58:00,33.2,27.7,29.75,SW,219,3.5,3.5,80,0.00,,,0.00,WeatherDisplay:10.37,2013-01-18 04:58:00,
2013-01-18 05:00:00,33.2,27.7,29.75,South,191,2.3,2.3,80,0.00,,,0.00,WeatherDisplay:10.37,2013-01-18 05:00:00,
2013-01-18 05:01:00,33.2,27.7,29.75,South,189,3.5,3.5,80,0.00,,,0.00,WeatherDisplay:10.37,2013-01-18 05:01:00,
2013-01-18 05:03:00,33.2,27.7,29.75,West,273,3.5,3.5,80,0.00,,,0.00,WeatherDisplay:10.37,2013-01-18 05:03:00,
2013-01-18 05:08:00,33.2,28.0,29.75,SSW,200,3.5,0.0,81,0.00,,,0.00,WeatherDisplay:10.37,2013-01-18 05:08:00,
2013-01-18 05:13:00,33.0,27.8,29.75,SE,145,0.0,0.3,81,0.00,,,0.00,WeatherDisplay:10.37,2013-01-18 05:13:00,
2013-01-18 05:19:00,33.0,27.8,29.75,NNE,25,6.9,6.9,81,0.00,,,0.00,WeatherDisplay:10.37,2013-01-18 05:19:00,
2013-01-18 05:24:00,32.9,28.0,29.74,WSW,244,3.5,3.5,82,0.00,,,0.00,WeatherDisplay:10.37,2013-01-18 05:24:00,
2013-01-18 05:29:00,32.9,28.0,29.74,SE,135,3.5,3.5,82,0.00,,,0.00,WeatherDisplay:10.37,2013-01-18 05:29:00,
2013-01-18 05:34:00,32.9,28.0,29.74,SW,217,3.5,3.5,82,0.00,,,0.00,WeatherDisplay:10.37,2013-01-18 05:34:00,
2013-01-18 05:40:00,32.9,28.0,29.74,ENE,75,3.5,3.5,82,0.00,,,0.00,WeatherDisplay:10.37,2013-01-18 05:40:00,
2013-01-18 05:45:00,32.9,28.3,29.74,WSW,240,2.3,2.3,83,0.00,,,0.00,WeatherDisplay:10.37,2013-01-18 05:45:00,
2013-01-18 05:50:00,32.9,28.3,29.73,SE,146,6.0,6.0,83,0.00,,,0.00,WeatherDisplay:10.37,2013-01-18 05:50:00,
2013-01-18 05:55:00,33.0,28.4,29.73,SE,146,5.0,5.0,83,0.00,,,0.00,WeatherDisplay:10.37,2013-01-18 05:55:00,
2013-01-18 06:01:00,33.0,28.4,29.73,South,178,1.1,1.1,83,0.00,,,0.00,WeatherDisplay:10.37,2013-01-18 06:01:00,
2013-01-18 06:06:00,32.9,28.3,29.73,NNE,24,4.0,4.0,83,0.00,,,0.00,WeatherDisplay:10.37,2013-01-18 06:06:00,
2013-01-18 06:11:00,32.9,28.6,29.73,East,98,4.0,4.0,84,0.00,,,0.00,WeatherDisplay:10.37,2013-01-18 06:11:00,
2013-01-18 06:16:00,32.8,28.5,29.73,SSW,192,3.5,0.0,84,0.00,,,0.00,WeatherDisplay:10.37,2013-01-18 06:16:00,
2013-01-18 06:21:00,32.8,28.8,29.73,SSE,165,3.5,3.5,85,0.00,,,0.00,WeatherDisplay:10.37,2013-01-18 06:21:00,
2013-01-18 06:27:00,32.8,28.8,29.73,SSW,212,3.5,3.5,85,0.00,,,0.00,WeatherDisplay:10.37,2013-01-18 06:27:00,
2013-01-18 06:32:00,32.8,28.8,29.73,South,174,2.3,2.3,85,0.00,,,0.00,WeatherDisplay:10.37,2013-01-18 06:32:00,
2013-01-18 06:37:00,32.8,29.1,29.73,SSW,199,1.1,1.1,86,0.00,,,0.00,WeatherDisplay:10.37,2013-01-18 06:37:00,
2013-01-18 06:42:00,32.7,29.0,29.73,SSW,207,1.0,1.0,86,0.00,,,0.00,WeatherDisplay:10.37,2013-01-18 06:42:00,
2013-01-18 06:48:00,32.6,28.9,29.72,SE,125,1.1,1.1,86,0.00,,,0.00,WeatherDisplay:10.37,2013-01-18 06:48:00,
2013-01-18 06:53:00,32.6,28.9,29.73,ESE,123,3.5,0.0,86,0.00,,,0.00,WeatherDisplay:10.37,2013-01-18 06:53:00,
2013-01-18 06:58:00,32.5,28.8,29.72,SSE,163,1.1,0.0,86,0.00,,,0.00,WeatherDisplay:10.37,2013-01-18 06:58:00,
2013-01-18 07:03:00,32.4,28.7,29.72,SE,133,1.1,0.0,86,0.00,,,0.00,WeatherDisplay:10.37,2013-01-18 07:03:00,
2013-01-18 07:08:00,32.3,28.3,29.72,South,169,5.0,5.0,85,0.00,,,0.00,WeatherDisplay:10.37,2013-01-18 07:08:00,
2013-01-18 07:14:00,32.3,28.3,29.72,South,182,4.6,4.6,85,0.00,,,0.00,WeatherDisplay:10.37,2013-01-18 07:14:00,
2013-01-18 07:19:00,32.3,28.3,29.72,South,182,2.3,0.0,85,0.00,,,0.00,WeatherDisplay:10.37,2013-01-18 07:19:00,
2013-01-18 07:24:00,32.3,28.3,29.71,SSW,200,4.0,4.0,85,0.00,,,0.00,WeatherDisplay:10.37,2013-01-18 07:24:00,
2013-01-18 07:29:00,32.3,28.3,29.71,ESE,113,2.3,2.3,85,0.00,,,0.00,WeatherDisplay:10.37,2013-01-18 07:29:00,
2013-01-18 07:34:00,32.2,27.9,29.71,ESE,113,1.1,1.1,84,0.00,,,0.00,WeatherDisplay:10.37,2013-01-18 07:34:00,
2013-01-18 07:39:00,32.1,27.8,29.71,ESE,113,0.0,0.0,84,0.00,,,0.00,WeatherDisplay:10.37,2013-01-18 07:39:00,
2013-01-18 07:44:00,32.0,27.7,29.71,NNW,345,2.3,2.3,84,0.00,,,0.00,WeatherDisplay:10.37,2013-01-18 07:44:00,
2013-01-18 07:50:00,31.8,27.5,29.71,NNW,345,1.0,0.0,84,0.00,,,0.00,WeatherDisplay:10.37,2013-01-18 07:50:00,
2013-01-18 07:55:00,31.7,27.4,29.71,NNW,345,0.0,0.0,84,0.00,,,0.00,WeatherDisplay:10.37,2013-01-18 07:55:00,
2013-01-18 08:00:00,31.6,27.3,29.71,NNW,344,0.0,0.0,84,0.00,,,0.00,WeatherDisplay:10.37,2013-01-18 08:00:00,
2013-01-18 08:05:00,31.5,27.2,29.71,NNW,345,2.0,2.0,84,0.00,,,0.00,WeatherDisplay:10.37,2013-01-18 08:05:00,
2013-01-18 08:11:00,31.4,27.1,29.70,NNW,345,1.1,0.0,84,0.00,,,0.00,WeatherDisplay:10.37,2013-01-18 08:11:00,
2013-01-18 08:16:00,31.4,27.4,29.70,ESE,117,2.3,0.0,85,0.00,,,0.00,WeatherDisplay:10.37,2013-01-18 08:16:00,
2013-01-18 08:21:00,31.3,27.3,29.70,ESE,117,1.1,0.0,85,0.00,,,0.00,WeatherDisplay:10.37,2013-01-18 08:21:00,
2013-01-18 08:26:00,31.3,27.3,29.70,SSW,196,2.3,0.0,85,0.00,,,0.00,WeatherDisplay:10.37,2013-01-18 08:26:00,
2013-01-18 08:31:00,31.3,27.3,29.70,SSW,196,0.0,0.0,85,0.00,,,0.00,WeatherDisplay:10.37,2013-01-18 08:31:00,
2013-01-18 08:36:00,31.2,27.2,29.69,ESE,111,2.3,2.3,85,0.00,,,0.00,WeatherDisplay:10.37,2013-01-18 08:36:00,
2013-01-18 08:42:00,31.2,27.5,29.69,ESE,111,0.0,0.0,86,0.00,,,0.00,WeatherDisplay:10.37,2013-01-18 08:42:00,
2013-01-18 08:47:00,31.2,27.5,29.69,ESE,111,2.3,2.3,86,0.00,,,0.00,WeatherDisplay:10.37,2013-01-18 08:47:00,
2013-01-18 08:52:00,31.2,27.5,29.69,ESE,111,0.0,0.0,86,0.00,,,0.00,WeatherDisplay:10.37,2013-01-18 08:52:00,
2013-01-18 08:57:00,31.2,27.5,29.69,ESE,111,0.0,0.0,86,0.00,,,0.00,WeatherDisplay:10.37,2013-01-18 08:57:00,
2013-01-18 09:02:00,31.2,27.5,29.69,ESE,111,0.0,0.0,86,0.00,,,0.00,WeatherDisplay:10.37,2013-01-18 09:02:00,
2013-01-18 09:07:00,31.2,27.5,29.69,ESE,111,0.0,0.0,86,0.00,,,0.00,WeatherDisplay:10.37,2013-01-18 09:07:00,
2013-01-18 09:13:00,31.1,27.4,29.69,ESE,111,2.0,2.0,86,0.00,,,0.00,WeatherDisplay:10.37,2013-01-18 09:13:00,
2013-01-18 09:18:00,31.1,27.4,29.69,ESE,111,0.0,0.1,86,0.00,,,0.00,WeatherDisplay:10.37,2013-01-18 09:18:00,
2013-01-18 09:24:00,31.1,27.4,29.69,ESE,111,1.1,0.0,86,0.00,,,0.00,WeatherDisplay:10.37,2013-01-18 09:24:00,
2013-01-18 09:29:00,31.1,27.4,29.69,ESE,111,0.0,0.0,86,0.00,,,0.00,WeatherDisplay:10.37,2013-01-18 09:29:00,
2013-01-18 09:34:00,31.1,27.4,29.69,ESE,111,1.1,1.1,86,0.00,,,0.00,WeatherDisplay:10.37,2013-01-18 09:34:00,
2013-01-18 09:39:00,31.2,27.8,29.69,ESE,111,1.1,0.0,87,0.00,,,0.00,WeatherDisplay:10.37,2013-01-18 09:39:00,
2013-01-18 09:44:00,31.3,27.6,29.68,ESE,111,1.1,1.1,86,0.00,,,0.00,WeatherDisplay:10.37,2013-01-18 09:44:00,
2013-01-18 09:50:00,31.4,27.7,29.68,NNE,16,4.0,4.0,86,0.00,,,0.00,WeatherDisplay:10.37,2013-01-18 09:50:00,
2013-01-18 09:55:00,31.6,27.9,29.68,West,281,0.0,0.0,86,0.00,,,0.00,WeatherDisplay:10.37,2013-01-18 09:55:00,
2013-01-18 10:00:00,31.8,27.8,29.68,SSE,154,2.0,2.0,85,0.00,,,0.00,WeatherDisplay:10.37,2013-01-18 10:00:00,
2013-01-18 10:05:00,32.1,28.1,29.68,SSE,162,1.1,1.1,85,0.00,,,0.00,WeatherDisplay:10.37,2013-01-18 10:05:00,
2013-01-18 10:10:00,32.5,28.5,29.68,NE,41,4.6,4.6,85,0.00,,,0.00,WeatherDisplay:10.37,2013-01-18 10:10:00,
2013-01-18 10:16:00,32.9,28.6,29.68,NE,39,4.6,4.6,84,0.00,,,0.00,WeatherDisplay:10.37,2013-01-18 10:16:00,
2013-01-18 10:21:00,33.3,29.0,29.68,ESE,104,3.5,3.5,84,0.00,,,0.00,WeatherDisplay:10.37,2013-01-18 10:21:00,
2013-01-18 10:26:00,33.5,28.9,29.67,SSE,152,3.0,3.0,83,0.00,,,0.00,WeatherDisplay:10.37,2013-01-18 10:26:00,
2013-01-18 10:31:00,33.7,29.1,29.67,South,181,3.0,3.0,83,0.00,,,0.00,WeatherDisplay:10.37,2013-01-18 10:31:00,
2013-01-18 10:37:00,33.8,29.5,29.67,WSW,250,3.0,3.0,84,0.00,,,0.00,WeatherDisplay:10.37,2013-01-18 10:37:00,
2013-01-18 10:42:00,34.1,29.8,29.67,NNW,329,4.6,4.6,84,0.00,,,0.00,WeatherDisplay:10.37,2013-01-18 10:42:00,
2013-01-18 10:47:00,34.2,29.9,29.67,NW,320,3.5,3.5,84,0.00,,,0.00,WeatherDisplay:10.37,2013-01-18 10:47:00,
2013-01-18 10:52:00,34.2,29.9,29.67,SW,215,3.5,3.5,84,0.00,,,0.00,WeatherDisplay:10.37,2013-01-18 10:52:00,
2013-01-18 10:58:00,34.4,30.1,29.67,South,187,3.5,3.5,84,0.00,,,0.00,WeatherDisplay:10.37,2013-01-18 10:58:00,
2013-01-18 11:03:00,34.5,30.2,29.67,NNW,348,3.5,3.5,84,0.00,,,0.00,WeatherDisplay:10.37,2013-01-18 11:03:00,
2013-01-18 11:08:00,34.6,30.3,29.67,SSE,163,3.5,3.5,84,0.00,,,0.00,WeatherDisplay:10.37,2013-01-18 11:08:00,
2013-01-18 11:13:00,34.7,30.1,29.67,WSW,253,4.0,4.0,83,0.00,,,0.00,WeatherDisplay:10.37,2013-01-18 11:13:00,
2013-01-18 11:18:00,34.8,30.2,29.67,North,355,3.5,3.5,83,0.00,,,0.00,WeatherDisplay:10.37,2013-01-18 11:18:00,
2013-01-18 11:23:00,34.9,30.0,29.66,SSE,157,4.6,4.6,82,0.00,,,0.00,WeatherDisplay:10.37,2013-01-18 11:23:00,
2013-01-18 11:28:00,35.0,30.1,29.67,WNW,284,2.3,2.3,82,0.00,,,0.00,WeatherDisplay:10.37,2013-01-18 11:28:00,
2013-01-18 11:34:00,35.3,30.4,29.66,WSW,250,2.3,2.3,82,0.00,,,0.00,WeatherDisplay:10.37,2013-01-18 11:34:00,
2013-01-18 11:39:00,35.4,30.1,29.66,North,5,3.5,3.5,81,0.00,,,0.00,WeatherDisplay:10.37,2013-01-18 11:39:00,
2013-01-18 11:44:00,35.5,29.9,29.66,SW,217,2.3,2.3,80,0.00,,,0.00,WeatherDisplay:10.37,2013-01-18 11:44:00,
2013-01-18 11:49:00,35.6,29.7,29.66,SW,232,2.3,2.3,79,0.00,,,0.00,WeatherDisplay:10.37,2013-01-18 11:49:00,
2013-01-18 11:54:00,35.5,29.3,29.66,SE,141,4.6,4.6,78,0.00,,,0.00,WeatherDisplay:10.37,2013-01-18 11:54:00,
2013-01-18 12:00:00,35.6,29.4,29.66,NW,313,5.0,5.0,78,0.00,,,0.00,WeatherDisplay:10.37,2013-01-18 12:00:00,
2013-01-18 12:05:00,35.7,28.9,29.66,ESE,107,6.0,6.0,76,0.00,,,0.00,WeatherDisplay:10.37,2013-01-18 12:05:00,
2013-01-18 12:10:00,35.7,28.6,29.66,WNW,288,5.8,5.8,75,0.00,,,0.00,WeatherDisplay:10.37,2013-01-18 12:10:00,
2013-01-18 12:15:00,35.8,28.6,29.66,SW,224,3.5,3.5,75,0.00,,,0.00,WeatherDisplay:10.37,2013-01-18 12:15:00,
2013-01-18 12:21:00,35.8,28.6,29.65,NW,320,5.0,5.0,75,0.00,,,0.00,WeatherDisplay:10.37,2013-01-18 12:21:00,
2013-01-18 12:26:00,35.8,28.6,29.65,West,260,3.5,3.5,75,0.00,,,0.00,WeatherDisplay:10.37,2013-01-18 12:26:00,
2013-01-18 12:31:00,35.9,29.1,29.65,SSE,165,5.8,5.8,76,0.00,,,0.00,WeatherDisplay:10.37,2013-01-18 12:31:00,
2013-01-18 12:36:00,35.9,28.7,29.65,SSE,166,2.3,2.3,75,0.00,,,0.00,WeatherDisplay:10.37,2013-01-18 12:36:00,
2013-01-18 12:41:00,35.9,29.1,29.65,SSW,205,2.3,2.3,76,0.00,,,0.00,WeatherDisplay:10.37,2013-01-18 12:41:00,
2013-01-18 12:46:00,35.8,29.0,29.65,ESE,120,2.3,2.3,76,0.00,,,0.00,WeatherDisplay:10.37,2013-01-18 12:46:00,
2013-01-18 12:52:00,35.6,28.8,29.65,SSW,211,3.5,3.5,76,0.00,,,0.00,WeatherDisplay:10.37,2013-01-18 12:52:00,
2013-01-18 12:57:00,35.8,29.0,29.65,South,184,3.5,3.5,76,0.00,,,0.00,WeatherDisplay:10.37,2013-01-18 12:57:00,
2013-01-18 13:02:00,36.1,29.3,29.65,ESE,102,4.6,4.6,76,0.00,,,0.00,WeatherDisplay:10.37,2013-01-18 13:02:00,
2013-01-18 13:07:00,36.1,29.3,29.65,SSW,211,2.3,2.3,76,0.00,,,0.00,WeatherDisplay:10.37,2013-01-18 13:07:00,
2013-01-18 13:13:00,35.9,29.1,29.65,NNW,343,4.6,4.6,76,0.00,,,0.00,WeatherDisplay:10.37,2013-01-18 13:13:00,
2013-01-18 13:18:00,35.8,29.3,29.64,WSW,241,3.5,3.5,77,0.00,,,0.00,WeatherDisplay:10.37,2013-01-18 13:18:00,
2013-01-18 13:23:00,35.6,29.1,29.64,ESE,118,3.5,3.5,77,0.00,,,0.00,WeatherDisplay:10.37,2013-01-18 13:23:00,
2013-01-18 13:28:00,35.5,29.3,29.64,NNE,28,4.6,4.6,78,0.00,,,0.00,WeatherDisplay:10.37,2013-01-18 13:28:00,
2013-01-18 13:33:00,35.5,29.3,29.64,SSW,193,4.6,4.6,78,0.00,,,0.00,WeatherDisplay:10.37,2013-01-18 13:33:00,
2013-01-18 13:38:00,35.4,29.8,29.64,SSW,209,4.0,4.0,80,0.00,,,0.00,WeatherDisplay:10.37,2013-01-18 13:38:00,
2013-01-18 13:44:00,35.4,29.5,29.63,North,5,4.6,4.6,79,0.00,,,0.00,WeatherDisplay:10.37,2013-01-18 13:44:00,
2013-01-18 13:49:00,35.5,29.9,29.63,SSE,155,4.6,4.6,80,0.00,,,0.00,WeatherDisplay:10.37,2013-01-18 13:49:00,
2013-01-18 13:54:00,35.6,29.7,29.63,NNE,16,5.8,5.8,79,0.00,,,0.00,WeatherDisplay:10.37,2013-01-18 13:54:00,
2013-01-18 13:59:00,35.4,29.2,29.62,WNW,288,3.5,3.5,78,0.00,,,0.00,WeatherDisplay:10.37,2013-01-18 13:59:00,
2013-01-18 14:04:00,35.3,29.7,29.62,North,5,5.0,5.0,80,0.00,,,0.00,WeatherDisplay:10.37,2013-01-18 14:04:00,
2013-01-18 14:10:00,35.3,29.4,29.62,WNW,302,4.6,4.6,79,0.00,,,0.00,WeatherDisplay:10.37,2013-01-18 14:10:00,
2013-01-18 14:15:00,35.3,29.4,29.62,SSE,165,5.8,5.8,79,0.00,,,0.00,WeatherDisplay:10.37,2013-01-18 14:15:00,
2013-01-18 14:20:00,35.3,29.4,29.62,SSE,155,5.8,5.8,79,0.00,,,0.00,WeatherDisplay:10.37,2013-01-18 14:20:00,
2013-01-18 14:25:00,35.5,29.6,29.62,SW,215,6.9,6.9,79,0.00,,,0.00,WeatherDisplay:10.37,2013-01-18 14:25:00,
2013-01-18 14:30:00,35.5,29.6,29.62,SE,136,9.0,9.0,79,0.00,,,0.00,WeatherDisplay:10.37,2013-01-18 14:30:00,
2013-01-18 14:35:00,35.5,29.3,29.62,SSW,200,1.1,1.1,78,0.00,,,0.00,WeatherDisplay:10.37,2013-01-18 14:35:00,
2013-01-18 14:40:00,35.6,29.7,29.61,SW,216,4.0,4.0,79,0.00,,,0.00,WeatherDisplay:10.37,2013-01-18 14:40:00,
2013-01-18 14:45:00,35.6,29.7,29.62,SW,214,2.0,2.0,79,0.00,,,0.00,WeatherDisplay:10.37,2013-01-18 14:45:00,
2013-01-18 14:50:00,35.6,29.7,29.61,SW,221,5.8,5.8,79,0.00,,,0.00,WeatherDisplay:10.37,2013-01-18 14:50:00,
2013-01-18 14:56:00,35.6,29.7,29.61,East,80,2.3,2.3,79,0.00,,,0.00,WeatherDisplay:10.37,2013-01-18 14:56:00,
2013-01-18 15:01:00,35.6,30.0,29.61,ESE,113,3.5,3.5,80,0.00,,,0.00,WeatherDisplay:10.37,2013-01-18 15:01:00,
2013-01-18 15:06:00,35.5,29.6,29.61,SW,227,1.1,1.1,79,0.00,,,0.00,WeatherDisplay:10.37,2013-01-18 15:06:00,
2013-01-18 15:11:00,35.3,29.7,29.60,SW,215,3.0,3.0,80,0.00,,,0.00,WeatherDisplay:10.37,2013-01-18 15:11:00,
2013-01-18 15:16:00,35.1,29.6,29.60,North,5,5.0,5.0,80,0.00,,,0.00,WeatherDisplay:10.37,2013-01-18 15:16:00,
2013-01-18 15:21:00,34.9,29.7,29.60,NW,304,3.5,3.5,81,0.00,,,0.00,WeatherDisplay:10.37,2013-01-18 15:21:00,
2013-01-18 15:27:00,34.6,29.7,29.60,North,355,3.5,3.5,82,0.00,,,0.00,WeatherDisplay:10.37,2013-01-18 15:27:00,
2013-01-18 15:32:00,34.5,29.6,29.60,WNW,284,3.5,3.5,82,0.00,,,0.00,WeatherDisplay:10.37,2013-01-18 15:32:00,
2013-01-18 15:37:00,34.3,29.7,29.60,NNW,345,2.0,2.0,83,0.00,,,0.00,WeatherDisplay:10.37,2013-01-18 15:37:00,
2013-01-18 15:42:00,34.2,29.6,29.60,NNW,331,4.0,4.0,83,0.00,,,0.00,WeatherDisplay:10.37,2013-01-18 15:42:00,
2013-01-18 15:47:00,34.1,29.8,29.60,NNE,15,2.3,2.3,84,0.00,,,0.00,WeatherDisplay:10.37,2013-01-18 15:47:00,
2013-01-18 15:53:00,34.1,29.8,29.60,NNE,19,3.0,3.0,84,0.00,,,0.00,WeatherDisplay:10.37,2013-01-18 15:53:00,
2013-01-18 15:58:00,34.1,30.1,29.60,NW,325,3.5,3.5,85,0.00,,,0.00,WeatherDisplay:10.37,2013-01-18 15:58:00,
2013-01-18 16:03:00,34.1,30.4,29.60,SSE,150,3.5,3.5,86,0.00,,,0.00,WeatherDisplay:10.37,2013-01-18 16:03:00,
2013-01-18 16:08:00,34.0,30.5,29.60,South,190,2.3,2.3,87,0.00,,,0.00,WeatherDisplay:10.37,2013-01-18 16:08:00,
2013-01-18 16:14:00,33.8,30.6,29.60,NW,324,2.3,2.3,88,0.00,,,0.00,WeatherDisplay:10.37,2013-01-18 16:14:00,
2013-01-18 16:19:00,33.7,30.8,29.60,SW,222,2.3,2.3,89,0.00,,,0.00,WeatherDisplay:10.37,2013-01-18 16:19:00,
2013-01-18 16:24:00,33.6,30.7,29.60,NNE,23,3.5,3.5,89,0.00,,,0.00,WeatherDisplay:10.37,2013-01-18 16:24:00,
2013-01-18 16:29:00,33.4,30.5,29.60,WNW,286,3.5,3.5,89,0.00,,,0.00,WeatherDisplay:10.37,2013-01-18 16:29:00,
2013-01-18 16:34:00,33.4,30.8,29.59,NNW,342,3.5,3.5,90,0.00,,,0.00,WeatherDisplay:10.37,2013-01-18 16:34:00,
2013-01-18 16:40:00,33.3,30.7,29.59,SE,142,2.3,2.3,90,0.00,,,0.00,WeatherDisplay:10.37,2013-01-18 16:40:00,
2013-01-18 16:45:00,33.3,30.7,29.59,NNW,328,2.3,2.3,90,0.00,,,0.00,WeatherDisplay:10.37,2013-01-18 16:45:00,
2013-01-18 16:50:00,33.2,30.6,29.59,North,360,1.1,0.0,90,0.00,,,0.00,WeatherDisplay:10.37,2013-01-18 16:50:00,
2013-01-18 16:55:00,33.2,30.6,29.59,North,360,1.1,1.1,90,0.00,,,0.00,WeatherDisplay:10.37,2013-01-18 16:55:00,
2013-01-18 17:01:00,33.2,30.6,29.59,East,88,1.1,1.1,90,0.00,,,0.00,WeatherDisplay:10.37,2013-01-18 17:01:00,
2013-01-18 17:06:00,33.3,31.0,29.59,NE,55,1.1,1.1,91,0.00,,,0.00,WeatherDisplay:10.37,2013-01-18 17:06:00,
2013-01-18 17:11:00,33.3,31.0,29.59,SSW,204,2.3,2.3,91,0.00,,,0.00,WeatherDisplay:10.37,2013-01-18 17:11:00,
2013-01-18 17:16:00,33.3,31.0,29.58,South,188,3.5,3.5,91,0.00,,,0.00,WeatherDisplay:10.37,2013-01-18 17:16:00,
2013-01-18 17:21:00,33.3,31.2,29.58,SW,229,1.1,1.1,92,0.00,,,0.00,WeatherDisplay:10.37,2013-01-18 17:21:00,
2013-01-18 17:27:00,33.3,31.2,29.58,ESE,123,1.1,1.1,92,0.00,,,0.00,WeatherDisplay:10.37,2013-01-18 17:27:00,
2013-01-18 17:32:00,33.2,31.1,29.58,NE,47,1.1,1.1,92,0.00,,,0.00,WeatherDisplay:10.37,2013-01-18 17:32:00,
2013-01-18 17:37:00,33.1,31.0,29.58,NE,51,0.0,0.0,92,0.00,,,0.00,WeatherDisplay:10.37,2013-01-18 17:37:00,
2013-01-18 17:42:00,32.9,30.8,29.59,NE,51,0.0,0.0,92,0.00,,,0.00,WeatherDisplay:10.37,2013-01-18 17:42:00,
2013-01-18 17:48:00,32.8,30.7,29.58,NE,51,1.1,0.0,92,0.00,,,0.00,WeatherDisplay:10.37,2013-01-18 17:48:00,
2013-01-18 17:53:00,32.5,30.4,29.58,NE,51,2.3,0.0,92,0.00,,,0.00,WeatherDisplay:10.37,2013-01-18 17:53:00,
2013-01-18 17:58:00,32.4,30.3,29.59,North,11,0.0,0.0,92,0.00,,,0.00,WeatherDisplay:10.37,2013-01-18 17:58:00,
2013-01-18 18:03:00,32.4,30.3,29.59,South,190,1.1,1.1,92,0.00,,,0.00,WeatherDisplay:10.37,2013-01-18 18:03:00,
2013-01-18 18:08:00,32.3,30.2,29.59,South,190,1.1,1.1,92,0.00,,,0.00,WeatherDisplay:10.37,2013-01-18 18:08:00,
2013-01-18 18:14:00,32.3,30.2,29.58,South,190,2.3,2.3,92,0.00,,,0.00,WeatherDisplay:10.37,2013-01-18 18:14:00,
2013-01-18 18:19:00,32.2,30.1,29.58,South,190,1.1,0.0,92,0.00,,,0.00,WeatherDisplay:10.37,2013-01-18 18:19:00,
2013-01-18 18:24:00,32.3,30.5,29.59,NW,325,1.1,0.0,93,0.00,,,0.00,WeatherDisplay:10.37,2013-01-18 18:24:00,
2013-01-18 18:29:00,32.4,30.6,29.58,WSW,240,2.3,2.3,93,0.00,,,0.00,WeatherDisplay:10.37,2013-01-18 18:29:00,
2013-01-18 18:35:00,32.5,30.7,29.59,SE,132,1.1,1.1,93,0.00,,,0.00,WeatherDisplay:10.37,2013-01-18 18:35:00,
2013-01-18 18:40:00,32.6,30.8,29.58,NNE,19,1.1,1.1,93,0.00,,,0.00,WeatherDisplay:10.37,2013-01-18 18:40:00,
2013-01-18 18:45:00,32.7,30.9,29.58,WNW,296,1.1,1.1,93,0.00,,,0.00,WeatherDisplay:10.37,2013-01-18 18:45:00,
2013-01-18 18:50:00,32.8,31.0,29.58,North,11,3.5,3.5,93,0.00,,,0.00,WeatherDisplay:10.37,2013-01-18 18:50:00,
2013-01-18 18:55:00,32.9,31.1,29.58,West,269,1.1,1.1,93,0.00,,,0.00,WeatherDisplay:10.37,2013-01-18 18:55:00,
2013-01-18 19:01:00,32.9,31.1,29.58,NNW,329,1.1,1.1,93,0.00,,,0.00,WeatherDisplay:10.37,2013-01-18 19:01:00,
2013-01-18 19:06:00,33.0,31.5,29.58,NNW,340,2.0,2.0,94,0.00,,,0.00,WeatherDisplay:10.37,2013-01-18 19:06:00,
2013-01-18 19:11:00,33.1,31.6,29.58,West,265,2.0,2.0,94,0.00,,,0.00,WeatherDisplay:10.37,2013-01-18 19:11:00,
2013-01-18 19:16:00,33.2,31.7,29.59,SW,219,2.3,2.3,94,0.00,,,0.00,WeatherDisplay:10.37,2013-01-18 19:16:00,
2013-01-18 19:21:00,33.3,31.8,29.59,West,278,3.5,3.5,94,0.00,,,0.00,WeatherDisplay:10.37,2013-01-18 19:21:00,
2013-01-18 19:27:00,33.3,31.8,29.59,West,271,3.5,3.5,94,0.00,,,0.00,WeatherDisplay:10.37,2013-01-18 19:27:00,
2013-01-18 19:32:00,33.3,31.8,29.59,NNW,331,4.0,4.0,94,0.00,,,0.00,WeatherDisplay:10.37,2013-01-18 19:32:00,
2013-01-18 19:37:00,33.3,31.8,29.59,WNW,300,3.0,3.0,94,0.00,,,0.00,WeatherDisplay:10.37,2013-01-18 19:37:00,
2013-01-18 19:42:00,33.3,31.8,29.58,WSW,237,2.3,2.3,94,0.00,,,0.00,WeatherDisplay:10.37,2013-01-18 19:42:00,
2013-01-18 19:47:00,33.3,31.8,29.58,ESE,109,3.0,3.0,94,0.00,,,0.00,WeatherDisplay:10.37,2013-01-18 19:47:00,
2013-01-18 19:53:00,33.4,31.9,29.58,SW,235,2.3,2.3,94,0.00,,,0.00,WeatherDisplay:10.37,2013-01-18 19:53:00,
2013-01-18 19:58:00,33.4,31.9,29.58,NW,307,1.1,1.1,94,0.00,,,0.00,WeatherDisplay:10.37,2013-01-18 19:58:00,
2013-01-18 20:03:00,33.4,31.9,29.58,West,267,3.5,3.5,94,0.00,,,0.00,WeatherDisplay:10.37,2013-01-18 20:03:00,
2013-01-18 20:08:00,33.5,32.0,29.58,North,5,3.0,3.0,94,0.00,,,0.00,WeatherDisplay:10.37,2013-01-18 20:08:00,
2013-01-18 20:14:00,33.5,32.2,29.58,South,187,3.5,3.5,95,0.00,,,0.00,WeatherDisplay:10.37,2013-01-18 20:14:00,
2013-01-18 20:19:00,33.6,32.3,29.59,SW,217,3.5,3.5,95,0.00,,,0.00,WeatherDisplay:10.37,2013-01-18 20:19:00,
2013-01-18 20:24:00,33.6,32.3,29.58,NNE,28,2.0,2.0,95,0.00,,,0.00,WeatherDisplay:10.37,2013-01-18 20:24:00,
2013-01-18 20:29:00,33.6,32.3,29.59,WSW,239,1.1,1.1,95,0.00,,,0.00,WeatherDisplay:10.37,2013-01-18 20:29:00,
2013-01-18 20:34:00,33.6,32.3,29.58,NNW,340,2.0,2.0,95,0.00,,,0.00,WeatherDisplay:10.37,2013-01-18 20:34:00,
2013-01-18 20:40:00,33.7,32.4,29.58,WNW,287,1.1,1.1,95,0.00,,,0.00,WeatherDisplay:10.37,2013-01-18 20:40:00,
2013-01-18 20:45:00,33.7,32.4,29.58,SSE,148,1.1,0.0,95,0.00,,,0.00,WeatherDisplay:10.37,2013-01-18 20:45:00,
2013-01-18 20:50:00,33.7,32.4,29.58,ESE,118,1.1,0.0,95,0.00,,,0.00,WeatherDisplay:10.37,2013-01-18 20:50:00,
2013-01-18 20:55:00,33.7,32.4,29.58,ESE,123,2.3,2.3,95,0.00,,,0.00,WeatherDisplay:10.37,2013-01-18 20:55:00,
2013-01-18 21:00:00,33.8,32.5,29.58,WSW,240,2.3,0.0,95,0.00,,,0.00,WeatherDisplay:10.37,2013-01-18 21:00:00,
2013-01-18 21:06:00,33.8,32.5,29.58,WSW,240,0.0,0.0,95,0.00,,,0.00,WeatherDisplay:10.37,2013-01-18 21:06:00,
2013-01-18 21:11:00,33.8,32.3,29.58,West,264,1.1,1.1,94,0.00,,,0.00,WeatherDisplay:10.37,2013-01-18 21:11:00,
2013-01-18 21:16:00,33.9,32.4,29.59,ESE,104,1.1,1.1,94,0.00,,,0.00,WeatherDisplay:10.37,2013-01-18 21:16:00,
2013-01-18 21:21:00,33.9,32.4,29.59,ESE,122,1.1,1.1,94,0.00,,,0.00,WeatherDisplay:10.37,2013-01-18 21:21:00,
2013-01-18 21:27:00,33.9,32.4,29.59,NNW,331,4.0,4.0,94,0.00,,,0.00,WeatherDisplay:10.37,2013-01-18 21:27:00,
2013-01-18 21:32:00,33.9,32.4,29.60,SE,126,5.8,5.8,94,0.00,,,0.00,WeatherDisplay:10.37,2013-01-18 21:32:00,
2013-01-18 21:37:00,33.9,32.4,29.59,SSW,194,3.0,3.0,94,0.00,,,0.00,WeatherDisplay:10.37,2013-01-18 21:37:00,
2013-01-18 21:42:00,33.8,32.3,29.59,WNW,302,3.5,3.5,94,0.00,,,0.00,WeatherDisplay:10.37,2013-01-18 21:42:00,
2013-01-18 21:47:00,33.7,32.2,29.59,NW,309,2.3,2.3,94,0.00,,,0.00,WeatherDisplay:10.37,2013-01-18 21:47:00,
2013-01-18 21:53:00,33.7,32.2,29.59,NE,36,4.6,4.6,94,0.00,,,0.00,WeatherDisplay:10.37,2013-01-18 21:53:00,
2013-01-18 21:58:00,33.7,32.2,29.59,North,355,2.3,2.3,94,0.00,,,0.00,WeatherDisplay:10.37,2013-01-18 21:58:00,
2013-01-18 22:03:00,33.7,32.2,29.59,ENE,72,2.0,2.0,94,0.00,,,0.00,WeatherDisplay:10.37,2013-01-18 22:03:00,
2013-01-18 22:08:00,33.8,32.3,29.59,SSW,211,2.3,2.3,94,0.00,,,0.00,WeatherDisplay:10.37,2013-01-18 22:08:00,
2013-01-18 22:13:00,33.8,32.3,29.59,SW,221,1.1,0.0,94,0.00,,,0.00,WeatherDisplay:10.37,2013-01-18 22:13:00,
2013-01-18 22:18:00,33.9,32.4,29.59,East,99,3.5,3.5,94,0.00,,,0.00,WeatherDisplay:10.37,2013-01-18 22:18:00,
2013-01-18 22:24:00,34.0,32.5,29.59,SSW,211,2.3,2.3,94,0.00,,,0.00,WeatherDisplay:10.37,2013-01-18 22:24:00,
2013-01-18 22:29:00,34.1,32.6,29.59,West,278,3.5,0.0,94,0.00,,,0.00,WeatherDisplay:10.37,2013-01-18 22:29:00,
2013-01-18 22:34:00,34.1,32.3,29.59,SW,233,2.3,0.0,93,0.00,,,0.00,WeatherDisplay:10.37,2013-01-18 22:34:00,
2013-01-18 22:39:00,34.1,32.3,29.58,West,280,0.0,0.0,93,0.00,,,0.00,WeatherDisplay:10.37,2013-01-18 22:39:00,
2013-01-18 22:44:00,34.2,32.4,29.59,SE,138,0.0,0.0,93,0.00,,,0.00,WeatherDisplay:10.37,2013-01-18 22:44:00,
2013-01-18 22:49:00,34.2,32.4,29.59,WSW,247,3.5,3.5,93,0.00,,,0.00,WeatherDisplay:10.37,2013-01-18 22:49:00,
2013-01-18 22:55:00,34.3,32.5,29.59,SSE,161,5.8,5.8,93,0.00,,,0.00,WeatherDisplay:10.37,2013-01-18 22:55:00,
2013-01-18 23:00:00,34.4,32.6,29.59,South,190,5.8,5.8,93,0.00,,,0.00,WeatherDisplay:10.37,2013-01-18 23:00:00,
2013-01-18 23:05:00,34.4,32.3,29.59,South,170,1.1,0.0,92,0.00,,,0.00,WeatherDisplay:10.37,2013-01-18 23:05:00,
2013-01-18 23:10:00,34.4,32.3,29.59,ENE,62,2.3,2.3,92,0.00,,,0.00,WeatherDisplay:10.37,2013-01-18 23:10:00,
2013-01-18 23:15:00,34.4,32.0,29.59,WSW,244,3.5,3.5,91,0.00,,,0.00,WeatherDisplay:10.37,2013-01-18 23:15:00,
2013-01-18 23:20:00,34.4,32.0,29.59,ESE,120,5.0,5.0,91,0.00,,,0.00,WeatherDisplay:10.37,2013-01-18 23:20:00,
2013-01-18 23:25:00,34.4,32.0,29.59,South,169,1.1,0.0,91,0.00,,,0.00,WeatherDisplay:10.37,2013-01-18 23:25:00,
2013-01-18 23:31:00,34.4,32.0,29.59,NNE,18,2.3,2.3,91,0.00,,,0.00,WeatherDisplay:10.37,2013-01-18 23:31:00,
2013-01-18 23:36:00,34.4,32.0,29.59,NNW,342,2.3,2.3,91,0.00,,,0.00,WeatherDisplay:10.37,2013-01-18 23:36:00,
2013-01-18 23:41:00,34.3,32.2,29.59,West,266,4.0,4.0,92,0.00,,,0.00,WeatherDisplay:10.37,2013-01-18 23:41:00,
2013-01-18 23:46:00,34.3,32.2,29.59,ESE,105,1.1,1.1,92,0.00,,,0.00,WeatherDisplay:10.37,2013-01-18 23:46:00,
2013-01-18 23:51:00,34.3,32.2,29.59,North,5,3.5,0.0,92,0.00,,,0.00,WeatherDisplay:10.37,2013-01-18 23:51:00,
2013-01-18 23:56:00,34.3,32.2,29.59,North,355,2.0,2.0,92,0.00,,,0.00,WeatherDisplay:10.37,2013-01-18 23:56:00,